Regional Weather Roundup
Issued by NWS

Home | Current Version | Previous Version | Graphics & Text | Print | Product List | Glossary Off
Versions: 1 2 3 4 5 6 7 8 9 10 11 12 13 14 15 16 17 18 19 20 21 22 23 24 25 26 27 28 29 30 31 32 33 34 35 36 37 38 39 40 41 42 43 44 45 46 47 48 49 50

000
ASUS43 KMKX 281300
RWRWI

WISCONSIN REGIONAL WEATHER ROUNDUP
NATIONAL WEATHER SERVICE MILWAUKEE/SULLIVAN WI
800 AM CDT TUE MAR 28 2017

NOTE: "FAIR" INDICATES FEW OR NO CLOUDS BELOW 12,000 FEET WITH NO
SIGNIFICANT WEATHER AND/OR OBSTRUCTIONS TO VISIBILITY.

WIZ001-002-006>008-014>016-023>028-281400-
NORTHWEST WISCONSIN

CITY           SKY/WX    TMP DP  RH WIND       PRES   REMARKS
SUPERIOR ARPT  SUNNY     27  26  99 CALM      30.13S
ASHLAND        SUNNY     28  27  96 CALM      30.14R
HAYWARD        SUNNY     28  24  85 N5        30.13S WCI  23
SIREN          SUNNY     25  23  93 CALM      30.12R
CUMBERLAND     SUNNY     28  27  93 CALM      30.11R
RICE LAKE      SUNNY     29  28  97 CALM      30.13S
CHETEK         SUNNY     26  25  99 CALM      30.12R
LADYSMITH      SUNNY     29  28  97 N3        30.14R
EAU CLAIRE     NOT AVBL
MENOMONIE      SUNNY     29  29  99 CALM      30.13R
NEW RICHMOND   SUNNY     30  30 100 CALM      30.12R FOG
OSCEOLA        SUNNY     28  28 100 CALM      30.13F
$$

WIZ003>005-009-010-017-018-281400-
NORTH CENTRAL WISCONSIN

CITY           SKY/WX    TMP DP  RH WIND       PRES   REMARKS
MANITOWISH WTR SUNNY     23  23 100 CALM      30.11S
ARBOR VITAE    SUNNY     25  24  94 CALM      30.11R
WOODRUFF       SUNNY     25  24  94 CALM      30.11R
RHINELANDER    SUNNY     31  28  89 CALM      30.12R
EAGLE RIVER    SUNNY     24  24 100 CALM      30.11R
LAND O LAKES   SUNNY     24  23  98 CALM      30.13R
PHILLIPS       SUNNY     23  23  99 CALM      30.12R
TOMAHAWK       SUNNY     21  20  95 CALM      30.12R
MEDFORD        SUNNY     28  27  98 CALM      30.11R
MERRILL        SUNNY     24  24 100 CALM      30.12R
$$

WIZ029-030-035-036-043>047-281400-
CENTRAL WISCONSIN

CITY           SKY/WX    TMP DP  RH WIND       PRES   REMARKS
WAUSAU         SUNNY     30  30 100 CALM      30.12R
MOSINEE        CLOUDY    34  34 100 N3          N/A
MARSHFIELD     MOSUNNY   31  30  96 NE3       30.10S FOG
STEVENS POINT  CLOUDY    37  36  96 CALM      30.13R
WAUPACA        SUNNY     37  36  94 CALM      30.13R
WAUTOMA        CLOUDY    41  37  86 CALM      30.13R
WISC RAPIDS    CLOUDY    41  38  89 CALM      30.13R
CAMP DOUGLAS   NOT AVBL
$$

WIZ011>013-019>022-031-037>040-048>050-281400-
NORTHEAST WISCONSIN

CITY           SKY/WX    TMP DP  RH WIND       PRES   REMARKS
ANTIGO         SUNNY     28  28 100 SW3       30.11R
SHAWANO        MOSUNNY   31  30  95 CALM      30.13R
OCONTO         SUNNY     30  29  98 CALM      30.12R
STURGEON BAY   SUNNY     34  33  96 N3        30.11R
GREEN BAY      SUNNY     36  36 100 N5        30.12R WCI  32
MANITOWOC      NOT AVBL
APPLETON       MOSUNNY   36  36 100 N7        30.10R WCI  30
CLINTONVILLE   SUNNY     32  32 100 CALM      30.12R
OSHKOSH        SUNNY     38  35  89 N3        30.12R
$$

WIZ032>034-041-042-053>061-281400-
SOUTHWEST WISCONSIN

CITY           SKY/WX    TMP DP  RH WIND       PRES   REMARKS
LA CROSSE      FOG       34  33  96 NW6       30.13R VSB<1/4 WCI  29
SPARTA         CLOUDY    36  36 100 CALM      30.12R
VIROQUA        CLOUDY    40  40  98 CALM      30.09R
BOSCOBEL       CLOUDY    45  42  89 CALM      30.11R FOG
PRAIRIE DU CHI CLOUDY    44  40  88 CALM      30.10R
PLATTEVILLE    CLOUDY    43  43 100 NE9       30.08R
$$

WIZ056-057-062-063-064-067-068-281400-
SOUTH CENTRAL WISCONSIN

CITY           SKY/WX    TMP DP  RH WIND       PRES   REMARKS
REEDSBURG      CLOUDY    40  40 100 CALM      30.11R
BARABOO/DELLS  CLOUDY    40  38  95 CALM      30.11R
LONE ROCK      NOT AVBL
MINERAL POINT  CLOUDY    43  43 100 NE9       30.08S FOG
MADISON        CLOUDY    41  37  86 NE7       30.11R
MIDDLETON      CLOUDY    42  40  93 N5        30.11R
WATERTOWN      CLOUDY    39  38  98 NE3       30.10R
MONROE         CLOUDY    39  39 100 NE10      30.08R FOG     WCI  32
JANESVILLE     CLOUDY    43  41  93 NE8       30.10R
$$

WIZ051-052-058>065-066-070>072-281400-
SOUTHEAST WISCONSIN

CITY           SKY/WX    TMP DP  RH WIND       PRES   REMARKS
MILWAUKEE      CLOUDY    41  35  79 N10       30.10R
WAUKESHA       CLOUDY    37  36  93 N6        30.10R WCI  33
MILWAUKEE/TIMM CLOUDY    39  34  81 N6        30.11R WCI  35
RACINE         CLOUDY    39  36  89 N9        30.11R FOG     WCI  33
KENOSHA        CLOUDY    39  36  89 N9        30.09R WCI  33
FOND DU LAC    SUNNY     38  34  85 N3        30.12R
SHEBOYGAN      SUNNY     39  35  86 N6        30.11R WCI  35
WEST BEND      CLOUDY    37  37 100 N5        30.10R WCI  34
JUNEAU         SUNNY     36  35  99 CALM      30.11R FOG
$$

LSZ147-162-281400-
LAKE SUPERIOR

STATION/POSITION TIME  TEMP    WIND        PRES    WAVE
                       AIR SEA DIR/SP/G            HT/PER
                 (UTC) (F)     (DEG/KT/KT) (MB)    (FT/S)
DEVILS ISLAND    1200   34     210/  9/ 10 1020.8R
PORT WING        1240   28     170/  4/  5 1020.0S
SAXON HARBOR     1230   27     190/  2/  2 1020.3S
$$

LMZ867-665-643>646-281400-
LAKE MICHIGAN

STATION/POSITION TIME  TEMP    WIND        PRES    WAVE
                       AIR SEA DIR/SP/G            HT/PER
                 (UTC) (F)     (DEG/KT/KT) (MB)    (FT/S)
CHAMBERS ISLAND  1240   30      10/ 12/ 14 1019.6R
NORTHPORT PIER   1240   31      60/  5/ 10 1020.3R
KEWAUNEE LAKESHO 1230   36     350/  4/  7 1019.1R
SHEBOYGAN LAKESH 1200   39     350/ 11/ 12 1019.2R
PORT WASHINGTON  1230   41     360/  3/  6 1020.0R
MILWAUKEE LAKESH 1230   40     360/  9/ 10   N/A
KENOSHA   LAKESH 1200   39      10/  9/ 12 1018.6
$$

TC  - TEMPERATURE IN CELSIUS
VSB - VISIBILITY IN STATUTE MILES
WCI - WIND CHILL INDEX
HX  - HEAT INDEX





USA.gov is the U.S. government's official web portal to all federal, state and local government web resources and services.